Time,TemperatureF,DewpointF,PressureIn,WindDirection,WindDirectionDegrees,WindSpeedMPH,WindSpeedGustMPH,Humidity,HourlyPrecipIn,Conditions,Clouds,dailyrainin,SoftwareType,DateUTC
2013-02-27 00:02:00,32.0,27.0,30.08,ENE,73,2.0,-999.0,80,-99.99,,,-99.99,,2013-02-27 05:02:00,
2013-02-27 00:12:00,32.0,27.0,30.08,ENE,73,2.0,-999.0,80,-99.99,,,-99.99,,2013-02-27 05:12:00,
2013-02-27 00:22:00,32.0,27.0,30.08,ESE,102,0.0,-999.0,81,-99.99,,,-99.99,,2013-02-27 05:22:00,
2013-02-27 00:32:00,32.0,27.0,30.08,ESE,113,1.0,-999.0,81,-99.99,,,-99.99,,2013-02-27 05:32:00,
2013-02-27 00:42:00,32.0,27.0,30.08,ESE,113,1.0,-999.0,81,-99.99,,,-99.99,,2013-02-27 05:42:00,
2013-02-27 00:52:00,32.0,27.0,30.07,East,88,0.0,-999.0,81,-99.99,,,-99.99,,2013-02-27 05:52:00,
2013-02-27 01:02:00,32.0,27.0,30.06,East,83,0.0,-999.0,81,-99.99,,,-99.99,,2013-02-27 06:02:00,
2013-02-27 01:11:00,32.0,27.0,30.06,East,83,0.0,-999.0,81,-99.99,,,-99.99,,2013-02-27 06:11:00,
2013-02-27 01:22:00,32.0,27.0,30.05,East,85,0.0,-999.0,81,-99.99,,,-99.99,,2013-02-27 06:22:00,
2013-02-27 01:33:00,32.0,27.0,30.03,East,96,3.0,-999.0,81,-99.99,,,-99.99,,2013-02-27 06:33:00,
2013-02-27 01:42:00,32.0,27.0,30.03,East,96,3.0,-999.0,81,-99.99,,,-99.99,,2013-02-27 06:42:00,
2013-02-27 01:52:00,33.0,27.0,30.02,ESE,123,3.0,-999.0,79,-99.99,,,-99.99,,2013-02-27 06:52:00,
2013-02-27 02:01:00,33.0,28.0,30.02,ENE,68,1.0,-999.0,81,-99.99,,,-99.99,,2013-02-27 07:01:00,
2013-02-27 02:12:00,33.0,28.0,30.02,ENE,68,1.0,-999.0,81,-99.99,,,-99.99,,2013-02-27 07:12:00,
2013-02-27 02:21:00,33.0,28.0,30.02,ENE,71,4.0,-999.0,82,-99.99,,,-99.99,,2013-02-27 07:21:00,
2013-02-27 02:32:00,32.0,28.0,30.01,NE,49,5.0,-999.0,85,-99.99,,,-99.99,,2013-02-27 07:32:00,
2013-02-27 02:42:00,32.0,28.0,30.01,NE,49,5.0,-999.0,85,-99.99,,,-99.99,,2013-02-27 07:42:00,
2013-02-27 02:52:00,32.0,29.0,30.01,ESE,121,3.0,-999.0,90,-99.99,,,-99.99,,2013-02-27 07:52:00,
2013-02-27 03:01:00,31.0,29.0,30.02,ESE,107,3.0,-999.0,92,-99.99,,,-99.99,,2013-02-27 08:01:00,
2013-02-27 03:11:00,31.0,29.0,30.02,ESE,107,3.0,-999.0,92,-99.99,,,-99.99,,2013-02-27 08:11:00,
2013-02-27 03:21:00,31.0,29.0,30.02,NE,48,3.0,-999.0,94,-99.99,,,-99.99,,2013-02-27 08:21:00,
2013-02-27 03:32:00,31.0,30.0,30.01,ESE,110,3.0,-999.0,95,-99.99,,,-99.99,,2013-02-27 08:32:00,
2013-02-27 03:42:00,31.0,30.0,30.01,ESE,110,3.0,-999.0,95,-99.99,,,-99.99,,2013-02-27 08:42:00,
2013-02-27 03:53:00,31.0,30.0,30.01,NE,45,2.0,-999.0,96,-99.99,,,-99.99,,2013-02-27 08:53:00,
2013-02-27 04:02:00,31.0,30.0,29.97,ENE,58,3.0,-999.0,97,-99.99,,,-99.99,,2013-02-27 09:02:00,
2013-02-27 04:12:00,31.0,30.0,29.97,ENE,58,3.0,-999.0,97,-99.99,,,-99.99,,2013-02-27 09:12:00,
2013-02-27 04:22:00,30.0,29.0,29.96,SE,137,1.0,-999.0,97,-99.99,,,-99.99,,2013-02-27 09:22:00,
2013-02-27 04:32:00,31.0,30.0,29.96,ESE,109,0.0,-999.0,97,-99.99,,,-99.99,,2013-02-27 09:32:00,
2013-02-27 04:41:00,31.0,30.0,29.96,ESE,109,0.0,-999.0,97,-99.99,,,-99.99,,2013-02-27 09:41:00,
2013-02-27 04:52:00,31.0,30.0,29.96,ESE,114,1.0,-999.0,97,-99.99,,,-99.99,,2013-02-27 09:52:00,
2013-02-27 05:01:00,31.0,31.0,29.94,ESE,112,1.0,-999.0,98,-99.99,,,-99.99,,2013-02-27 10:01:00,
2013-02-27 05:12:00,31.0,31.0,29.94,ESE,112,1.0,-999.0,98,-99.99,,,-99.99,,2013-02-27 10:12:00,
2013-02-27 05:22:00,31.0,31.0,29.94,NE,45,2.0,-999.0,98,-99.99,,,-99.99,,2013-02-27 10:22:00,
2013-02-27 05:32:00,31.0,31.0,29.93,East,97,2.0,-999.0,98,-99.99,,,-99.99,,2013-02-27 10:32:00,
2013-02-27 05:42:00,31.0,31.0,29.93,East,97,2.0,-999.0,98,-99.99,,,-99.99,,2013-02-27 10:42:00,
2013-02-27 05:53:00,31.0,31.0,29.93,SE,127,0.0,-999.0,98,-99.99,,,-99.99,,2013-02-27 10:53:00,
2013-02-27 06:02:00,32.0,31.0,29.91,NNE,31,3.0,-999.0,97,-99.99,,,-99.99,,2013-02-27 11:02:00,
2013-02-27 06:12:00,32.0,31.0,29.91,NNE,31,3.0,-999.0,97,-99.99,,,-99.99,,2013-02-27 11:12:00,
2013-02-27 06:22:00,32.0,31.0,29.91,East,100,1.0,-999.0,97,-99.99,,,-99.99,,2013-02-27 11:22:00,
2013-02-27 06:32:00,32.0,31.0,29.90,SE,140,4.0,-999.0,97,-99.99,,,-99.99,,2013-02-27 11:32:00,
2013-02-27 06:42:00,32.0,31.0,29.90,SE,140,4.0,-999.0,97,-99.99,,,-99.99,,2013-02-27 11:42:00,
2013-02-27 06:52:00,32.0,31.0,29.89,ENE,73,4.0,-999.0,97,-99.99,,,-99.99,,2013-02-27 11:52:00,
2013-02-27 07:02:00,32.0,31.0,29.89,East,100,4.0,-999.0,97,-99.99,,,-99.99,,2013-02-27 12:02:00,
2013-02-27 07:13:00,32.0,31.0,29.89,East,100,4.0,-999.0,97,-99.99,,,-99.99,,2013-02-27 12:13:00,
2013-02-27 07:22:00,33.0,32.0,29.88,ESE,114,4.0,-999.0,97,-99.99,,,-99.99,,2013-02-27 12:22:00,
2013-02-27 07:33:00,33.0,32.0,29.87,NE,35,4.0,-999.0,96,-99.99,,,-99.99,,2013-02-27 12:33:00,
2013-02-27 07:42:00,33.0,32.0,29.87,NE,35,4.0,-999.0,96,-99.99,,,-99.99,,2013-02-27 12:42:00,
2013-02-27 07:53:00,33.0,32.0,29.86,ENE,76,3.0,-999.0,97,-99.99,,,-99.99,,2013-02-27 12:53:00,
2013-02-27 08:02:00,33.0,32.0,29.86,ESE,109,4.0,-999.0,97,-99.99,,,-99.99,,2013-02-27 13:02:00,
2013-02-27 08:11:00,33.0,32.0,29.86,ESE,109,4.0,-999.0,97,-99.99,,,-99.99,,2013-02-27 13:11:00,
2013-02-27 08:22:00,33.0,32.0,29.86,ESE,103,4.0,-999.0,97,-99.99,,,-99.99,,2013-02-27 13:22:00,
2013-02-27 08:32:00,33.0,32.0,29.85,SE,143,4.0,-999.0,97,-99.99,,,-99.99,,2013-02-27 13:32:00,
2013-02-27 08:42:00,33.0,32.0,29.85,SE,143,4.0,-999.0,97,-99.99,,,-99.99,,2013-02-27 13:42:00,
2013-02-27 08:52:00,33.0,32.0,29.83,East,79,5.0,-999.0,97,-99.99,,,-99.99,,2013-02-27 13:52:00,
2013-02-27 09:02:00,34.0,33.0,29.82,ENE,59,5.0,-999.0,96,-99.99,,,-99.99,,2013-02-27 14:02:00,
2013-02-27 09:12:00,34.0,33.0,29.82,ENE,59,5.0,-999.0,96,-99.99,,,-99.99,,2013-02-27 14:12:00,
2013-02-27 09:22:00,34.0,33.0,29.81,SE,130,6.0,-999.0,95,-99.99,,,-99.99,,2013-02-27 14:22:00,
2013-02-27 09:32:00,34.0,33.0,29.80,ESE,113,5.0,-999.0,95,-99.99,,,-99.99,,2013-02-27 14:32:00,
2013-02-27 09:42:00,34.0,33.0,29.80,ESE,113,5.0,-999.0,95,-99.99,,,-99.99,,2013-02-27 14:42:00,
2013-02-27 09:52:00,34.0,33.0,29.80,East,97,5.0,-999.0,96,-99.99,,,-99.99,,2013-02-27 14:52:00,
2013-02-27 10:02:00,34.0,33.0,29.80,East,99,3.0,-999.0,97,-99.99,,,-99.99,,2013-02-27 15:02:00,
2013-02-27 10:12:00,34.0,33.0,29.80,East,99,3.0,-999.0,97,-99.99,,,-99.99,,2013-02-27 15:12:00,
2013-02-27 10:22:00,34.0,33.0,29.80,ENE,59,3.0,-999.0,97,-99.99,,,-99.99,,2013-02-27 15:22:00,
2013-02-27 10:32:00,34.0,33.0,29.79,East,82,3.0,-999.0,97,-99.99,,,-99.99,,2013-02-27 15:32:00,
2013-02-27 10:42:00,34.0,33.0,29.79,East,82,3.0,-999.0,97,-99.99,,,-99.99,,2013-02-27 15:42:00,
2013-02-27 10:52:00,34.0,33.0,29.78,ESE,107,2.0,-999.0,97,-99.99,,,-99.99,,2013-02-27 15:52:00,
2013-02-27 11:02:00,34.0,33.0,29.78,ESE,110,2.0,-999.0,97,-99.99,,,-99.99,,2013-02-27 16:02:00,
2013-02-27 11:12:00,34.0,33.0,29.78,ESE,110,2.0,-999.0,97,-99.99,,,-99.99,,2013-02-27 16:12:00,
2013-02-27 11:22:00,34.0,33.0,29.77,ESE,103,3.0,-999.0,97,-99.99,,,-99.99,,2013-02-27 16:22:00,
2013-02-27 11:32:00,34.0,33.0,29.77,ENE,61,3.0,-999.0,97,-99.99,,,-99.99,,2013-02-27 16:32:00,
2013-02-27 11:42:00,34.0,33.0,29.77,ENE,61,3.0,-999.0,97,-99.99,,,-99.99,,2013-02-27 16:42:00,
2013-02-27 11:52:00,34.0,33.0,29.76,NE,42,4.0,-999.0,96,-99.99,,,-99.99,,2013-02-27 16:52:00,
2013-02-27 12:02:00,35.0,34.0,29.75,ENE,61,3.0,-999.0,96,-99.99,,,-99.99,,2013-02-27 17:02:00,
2013-02-27 12:11:00,35.0,34.0,29.75,ENE,61,3.0,-999.0,96,-99.99,,,-99.99,,2013-02-27 17:11:00,
2013-02-27 12:21:00,35.0,34.0,29.74,ESE,117,3.0,-999.0,96,-99.99,,,-99.99,,2013-02-27 17:21:00,
2013-02-27 12:32:00,35.0,34.0,29.72,East,85,4.0,-999.0,96,-99.99,,,-99.99,,2013-02-27 17:32:00,
2013-02-27 12:42:00,35.0,34.0,29.72,East,85,4.0,-999.0,96,-99.99,,,-99.99,,2013-02-27 17:42:00,
2013-02-27 12:52:00,35.0,34.0,29.71,ESE,107,4.0,-999.0,96,-99.99,,,-99.99,,2013-02-27 17:52:00,
2013-02-27 13:02:00,35.0,34.0,29.71,East,92,4.0,-999.0,96,-99.99,,,-99.99,,2013-02-27 18:02:00,
2013-02-27 13:11:00,35.0,34.0,29.71,East,92,4.0,-999.0,96,-99.99,,,-99.99,,2013-02-27 18:11:00,
2013-02-27 13:22:00,35.0,34.0,29.70,ENE,59,4.0,-999.0,96,-99.99,,,-99.99,,2013-02-27 18:22:00,
2013-02-27 13:32:00,35.0,34.0,29.68,ESE,114,4.0,-999.0,96,-99.99,,,-99.99,,2013-02-27 18:32:00,
2013-02-27 13:42:00,35.0,34.0,29.68,ESE,114,4.0,-999.0,96,-99.99,,,-99.99,,2013-02-27 18:42:00,
2013-02-27 13:52:00,35.0,34.0,29.67,East,99,4.0,-999.0,96,-99.99,,,-99.99,,2013-02-27 18:52:00,
2013-02-27 14:01:00,35.0,34.0,29.66,ESE,106,4.0,-999.0,96,-99.99,,,-99.99,,2013-02-27 19:01:00,
2013-02-27 14:12:00,35.0,34.0,29.66,ESE,106,4.0,-999.0,96,-99.99,,,-99.99,,2013-02-27 19:12:00,
2013-02-27 14:21:00,35.0,34.0,29.67,ESE,120,4.0,-999.0,96,-99.99,,,-99.99,,2013-02-27 19:21:00,
2013-02-27 14:32:00,35.0,34.0,29.69,ESE,112,4.0,-999.0,95,-99.99,,,-99.99,,2013-02-27 19:32:00,
2013-02-27 14:42:00,35.0,34.0,29.69,ESE,112,4.0,-999.0,95,-99.99,,,-99.99,,2013-02-27 19:42:00,
2013-02-27 14:52:00,35.0,34.0,29.67,ENE,64,5.0,-999.0,95,-99.99,,,-99.99,,2013-02-27 19:52:00,
2013-02-27 15:02:00,34.0,33.0,29.66,ESE,121,4.0,-999.0,95,-99.99,,,-99.99,,2013-02-27 20:02:00,
2013-02-27 15:12:00,34.0,33.0,29.66,ESE,121,4.0,-999.0,95,-99.99,,,-99.99,,2013-02-27 20:12:00,
2013-02-27 15:22:00,34.0,33.0,29.65,SSE,147,6.0,-999.0,96,-99.99,,,-99.99,,2013-02-27 20:22:00,
2013-02-27 15:32:00,33.0,32.0,29.60,ESE,114,5.0,-999.0,97,-99.99,,,-99.99,,2013-02-27 20:32:00,
2013-02-27 15:42:00,33.0,32.0,29.60,ESE,114,5.0,-999.0,97,-99.99,,,-99.99,,2013-02-27 20:42:00,
2013-02-27 15:52:00,33.0,32.0,29.58,ESE,114,7.0,-999.0,97,-99.99,,,-99.99,,2013-02-27 20:52:00,
2013-02-27 16:02:00,33.0,32.0,29.59,ESE,103,7.0,-999.0,96,-99.99,,,-99.99,,2013-02-27 21:02:00,
2013-02-27 16:11:00,33.0,32.0,29.59,ESE,103,7.0,-999.0,96,-99.99,,,-99.99,,2013-02-27 21:11:00,
2013-02-27 16:22:00,33.0,32.0,29.58,ESE,107,5.0,-999.0,96,-99.99,,,-99.99,,2013-02-27 21:22:00,
2013-02-27 16:32:00,33.0,32.0,29.62,East,100,3.0,-999.0,95,-99.99,,,-99.99,,2013-02-27 21:32:00,
2013-02-27 16:42:00,33.0,32.0,29.62,East,100,3.0,-999.0,95,-99.99,,,-99.99,,2013-02-27 21:42:00,
2013-02-27 16:52:00,33.0,31.0,29.62,NE,48,5.0,-999.0,94,-99.99,,,-99.99,,2013-02-27 21:52:00,
2013-02-27 17:02:00,33.0,31.0,29.62,East,80,5.0,-999.0,93,-99.99,,,-99.99,,2013-02-27 22:02:00,
2013-02-27 17:11:00,33.0,31.0,29.62,East,80,5.0,-999.0,93,-99.99,,,-99.99,,2013-02-27 22:11:00,
2013-02-27 17:21:00,33.0,31.0,29.61,ESE,107,3.0,-999.0,94,-99.99,,,-99.99,,2013-02-27 22:21:00,
2013-02-27 17:32:00,33.0,31.0,29.61,East,86,5.0,-999.0,94,-99.99,,,-99.99,,2013-02-27 22:32:00,
2013-02-27 17:42:00,33.0,31.0,29.61,East,86,5.0,-999.0,94,-99.99,,,-99.99,,2013-02-27 22:42:00,
2013-02-27 17:52:00,33.0,31.0,29.61,ESE,116,5.0,-999.0,94,-99.99,,,-99.99,,2013-02-27 22:52:00,
2013-02-27 18:01:00,33.0,31.0,29.60,ESE,107,5.0,-999.0,93,-99.99,,,-99.99,,2013-02-27 23:01:00,
2013-02-27 18:11:00,33.0,31.0,29.60,ESE,107,5.0,-999.0,93,-99.99,,,-99.99,,2013-02-27 23:11:00,
2013-02-27 18:21:00,33.0,31.0,29.60,NE,48,4.0,-999.0,93,-99.99,,,-99.99,,2013-02-27 23:21:00,
2013-02-27 18:32:00,33.0,31.0,29.60,ESE,104,5.0,-999.0,92,-99.99,,,-99.99,,2013-02-27 23:32:00,
2013-02-27 18:42:00,33.0,31.0,29.60,ESE,104,5.0,-999.0,92,-99.99,,,-99.99,,2013-02-27 23:42:00,
2013-02-27 18:53:00,33.0,31.0,29.60,SE,127,2.0,-999.0,92,-99.99,,,-99.99,,2013-02-27 23:53:00,
2013-02-27 19:02:00,33.0,31.0,29.60,ESE,119,6.0,-999.0,91,-99.99,,,-99.99,,2013-02-28 00:02:00,
2013-02-27 19:12:00,33.0,31.0,29.60,ESE,119,6.0,-999.0,91,-99.99,,,-99.99,,2013-02-28 00:12:00,
2013-02-27 19:21:00,33.0,31.0,29.60,SSE,147,5.0,-999.0,91,-99.99,,,-99.99,,2013-02-28 00:21:00,
2013-02-27 19:32:00,33.0,31.0,29.59,East,85,6.0,-999.0,91,-99.99,,,-99.99,,2013-02-28 00:32:00,
2013-02-27 19:42:00,33.0,31.0,29.59,East,85,6.0,-999.0,91,-99.99,,,-99.99,,2013-02-28 00:42:00,
2013-02-27 19:52:00,33.0,31.0,29.59,East,86,3.0,-999.0,91,-99.99,,,-99.99,,2013-02-28 00:52:00,
2013-02-27 20:01:00,33.0,31.0,29.59,SE,133,2.0,-999.0,91,-99.99,,,-99.99,,2013-02-28 01:01:00,
2013-02-27 20:11:00,33.0,31.0,29.59,SE,133,2.0,-999.0,91,-99.99,,,-99.99,,2013-02-28 01:11:00,
2013-02-27 20:22:00,33.0,31.0,29.59,ESE,116,0.0,-999.0,91,-99.99,,,-99.99,,2013-02-28 01:22:00,
2013-02-27 20:32:00,33.0,31.0,29.60,NNW,340,0.0,-999.0,91,-99.99,,,-99.99,,2013-02-28 01:32:00,
2013-02-27 20:42:00,33.0,31.0,29.60,NNW,340,0.0,-999.0,91,-99.99,,,-99.99,,2013-02-28 01:42:00,
2013-02-27 20:52:00,33.0,31.0,29.60,NW,326,0.0,-999.0,91,-99.99,,,-99.99,,2013-02-28 01:52:00,
2013-02-27 21:01:00,32.0,30.0,29.60,NNE,17,0.0,-999.0,92,-99.99,,,-99.99,,2013-02-28 02:01:00,
2013-02-27 21:11:00,32.0,30.0,29.60,NNE,17,0.0,-999.0,92,-99.99,,,-99.99,,2013-02-28 02:11:00,
2013-02-27 21:22:00,32.0,30.0,29.60,North,360,0.0,-999.0,92,-99.99,,,-99.99,,2013-02-28 02:22:00,
2013-02-27 21:32:00,33.0,31.0,29.59,North,360,0.0,-999.0,91,-99.99,,,-99.99,,2013-02-28 02:32:00,
2013-02-27 21:41:00,33.0,31.0,29.59,North,360,0.0,-999.0,91,-99.99,,,-99.99,,2013-02-28 02:41:00,
2013-02-27 21:52:00,33.0,31.0,29.59,North,360,0.0,-999.0,91,-99.99,,,-99.99,,2013-02-28 02:52:00,
2013-02-27 22:01:00,32.0,30.0,29.59,NNW,340,0.0,-999.0,92,-99.99,,,-99.99,,2013-02-28 03:01:00,
2013-02-27 22:11:00,32.0,30.0,29.59,NNW,340,0.0,-999.0,92,-99.99,,,-99.99,,2013-02-28 03:11:00,
2013-02-27 22:21:00,32.0,30.0,29.59,NNW,340,0.0,-999.0,94,-99.99,,,-99.99,,2013-02-28 03:21:00,
2013-02-27 22:32:00,32.0,30.0,29.58,North,360,0.0,-999.0,94,-99.99,,,-99.99,,2013-02-28 03:32:00,
2013-02-27 22:42:00,32.0,30.0,29.58,North,360,0.0,-999.0,94,-99.99,,,-99.99,,2013-02-28 03:42:00,
2013-02-27 22:52:00,32.0,30.0,29.58,North,360,0.0,-999.0,94,-99.99,,,-99.99,,2013-02-28 03:52:00,
2013-02-27 23:02:00,32.0,30.0,29.58,North,3,0.0,-999.0,94,-99.99,,,-99.99,,2013-02-28 04:02:00,
2013-02-27 23:11:00,32.0,30.0,29.58,North,3,0.0,-999.0,94,-99.99,,,-99.99,,2013-02-28 04:11:00,
2013-02-27 23:22:00,31.0,30.0,29.58,North,353,0.0,-999.0,95,-99.99,,,-99.99,,2013-02-28 04:22:00,
2013-02-27 23:32:00,31.0,30.0,29.58,NNW,340,0.0,-999.0,96,-99.99,,,-99.99,,2013-02-28 04:32:00,
2013-02-27 23:42:00,31.0,30.0,29.58,NNW,340,0.0,-999.0,96,-99.99,,,-99.99,,2013-02-28 04:42:00,
2013-02-27 23:52:00,31.0,30.0,29.58,NW,313,0.0,-999.0,97,-99.99,,,-99.99,,2013-02-28 04:52:00,